KC2PJH Weather Reports


time (UTC)temp
F
wind
direction
speed
knots
gust
knots
rain 1hr
in
rain 24hr
in
rain mn
in
humidity
%
barometer
mb
20260510142320 60 359 2.6 4.3 0.00 0.04 0.01 1 1010.4
20260510141323 59 359 2.6 5.2 0.00 0.04 0.01 1 1010.4
20260510140320 58 359 0.0 4.3 0.00 0.04 0.01 1 1010.3
20260510135316 57 359 1.7 5.2 0.00 0.04 0.01 1 1010.4
20260510134323 56 359 1.7 3.5 0.00 0.04 0.01 1 1010.5
20260510133320 55 359 1.7 3.5 0.00 0.04 0.01 1 1010.6
20260510132318 55 359 0.9 3.5 0.00 0.04 0.01 1 1010.8
20260510131314 54 359 1.7 3.5 0.00 0.04 0.01 1 1010.7
20260510130322 54 359 0.9 3.5 0.00 0.04 0.01 1 1010.5
20260510125317 53 359 1.7 3.5 0.00 0.04 0.01 1 1010.5
20260510124316 52 359 0.0 2.6 0.00 0.04 0.01 1 1010.5
20260510123315 52 359 0.0 1.7 0.00 0.04 0.01 1 1010.5
20260510122329 51 359 0.0 0.0 0.00 0.04 0.01 1 1010.3
20260510121318 51 359 0.0 0.0 0.00 0.04 0.01 1 1010.1
20260510120316 51 359 0.0 0.0 0.01 0.04 0.01 1 1010.1
20260510115321 51 359 0.0 0.0 0.01 0.04 0.01 1 1010.0
20260510114341 51 359 0.0 0.0 0.01 0.04 0.01 1 1010.0
20260510113326 51 359 0.0 0.0 0.01 0.04 0.01 1 1009.9
20260510112325 51 359 0.0 0.0 0.01 0.04 0.01 1 1009.9
20260510111322 50 359 0.0 0.0 0.01 0.05 0.01 1 1009.7
20260510110320 50 359 0.0 0.0 0.00 0.04 0.00 1 1009.5
20260510105313 50 359 0.0 0.0 0.00 0.04 0.00 1 1009.4
20260510104327 50 359 0.0 0.0 0.00 0.04 0.00 1 1009.4
20260510103322 50 359 0.0 0.0 0.00 0.04 0.00 1 1009.1
20260510102319 50 359 0.0 0.0 0.00 0.04 0.00 1 1009.2
20260510101327 50 359 0.0 0.0 0.00 0.04 0.00 1 1009.1
20260510100322 50 359 0.0 0.0 0.00 0.04 0.00 1 1009.0
20260510095319 50 359 0.0 0.0 0.00 0.04 0.00 1 1008.9
20260510094328 49 359 0.0 0.0 0.00 0.04 0.00 1 1008.9
20260510093327 50 359 0.0 0.0 0.00 0.04 0.00 1 1008.8
20260510092324 49 359 0.0 1.7 0.00 0.04 0.00 1 1008.3
20260510091320 49 359 0.0 0.0 0.00 0.04 0.00 1 1008.7
20260510090327 49 359 0.0 0.9 0.00 0.04 0.00 1 1008.4
20260510085343 49 359 0.0 1.7 0.00 0.04 0.00 1 1008.6
20260510084320 49 359 0.0 1.7 0.00 0.04 0.00 1 1008.8
20260510083318 50 359 0.0 0.9 0.00 0.04 0.00 1 1008.9
20260510082326 50 359 0.0 1.7 0.00 0.04 0.00 1 1008.9
20260510081323 50 359 0.0 0.9 0.00 0.05 0.00 1 1008.9
20260510080322 50 359 0.0 0.9 0.00 0.05 0.00 1 1009.1
20260510075320 50 359 0.9 2.6 0.00 0.05 0.00 1 1009.3
20260510074320 50 359 0.0 1.7 0.00 0.05 0.00 1 1009.4
20260510073318 50 359 0.0 1.7 0.00 0.05 0.00 1 1009.4
20260510072323 50 359 0.0 1.7 0.00 0.05 0.00 1 1009.6
20260510071321 50 359 0.9 2.6 0.00 0.05 0.00 1 1009.6
20260510070317 49 359 0.0 0.9 0.00 0.05 0.00 1 1009.7
20260510065315 49 359 0.0 0.9 0.00 0.05 0.00 1 1009.6
20260510064323 49 359 0.0 0.0 0.00 0.05 0.00 1 1009.1
20260510063339 49 359 0.0 0.0 0.00 0.05 0.00 1 1009.1
20260510062316 49 359 0.0 1.7 0.00 0.05 0.00 1 1009.0
20260510061315 49 359 0.9 2.6 0.00 0.05 0.00 1 1009.2
20260510060323 48 359 0.0 0.0 0.00 0.05 0.00 1 1009.3
20260510055319 47 359 0.0 0.0 0.00 0.05 0.00 1 1009.2
20260510054318 46 359 0.0 0.0 0.00 0.05 0.00 1 1009.1
20260510053332 47 359 0.0 0.0 0.00 0.05 0.00 1 1009.0
20260510052341 47 359 0.0 0.0 0.00 0.05 0.00 1 1008.7
20260510051314 47 359 0.0 0.0 0.00 0.05 0.05 1 1008.6
20260510050334 47 359 0.0 0.0 0.00 0.05 0.05 1 1008.5
20260510045324 47 359 0.0 0.0 0.00 0.05 0.05 1 1008.8
20260510044323 47 359 0.0 0.0 0.00 0.05 0.05 1 1008.8
20260510043321 47 359 0.0 0.0 0.00 0.05 0.05 1 1008.6
20260510042342 47 359 0.0 0.0 0.00 0.05 0.05 1 1008.6
20260510041317 47 359 0.0 0.0 0.00 0.05 0.05 1 1008.6
20260510040354 47 359 0.0 0.0 0.00 0.05 0.05 1 1008.6
20260510035324 47 359 0.0 0.0 0.00 0.05 0.05 1 1008.4
20260510034321 47 359 0.0 0.0 0.00 0.05 0.05 1 1008.5
20260510033339 48 359 0.0 0.0 0.00 0.05 0.05 1 1008.4
20260510032327 48 359 0.0 0.0 0.00 0.05 0.05 1 1008.4
20260510031323 49 359 0.0 0.0 0.00 0.05 0.05 1 1008.5
20260510030321 49 359 0.0 0.0 0.00 0.05 0.05 1 1008.4
20260510025320 50 359 0.0 0.0 0.00 0.05 0.05 1 1008.4
20260510024319 50 359 0.0 0.0 0.00 0.05 0.05 1 1008.6
20260510023318 50 359 0.0 0.0 0.00 0.05 0.05 1 1008.7
20260510022327 51 359 0.0 0.0 0.00 0.05 0.05 1 1008.5
20260510021319 50 359 0.0 0.0 0.00 0.05 0.05 1 1008.4
20260510020323 50 359 0.0 0.9 0.00 0.05 0.05 1 1008.4
20260510015320 51 359 0.0 0.9 0.01 0.05 0.05 1 1008.4
20260510014318 51 359 0.0 0.9 0.01 0.05 0.05 1 1008.3
20260510013316 51 359 0.0 0.0 0.01 0.05 0.05 1 1008.4
20260510012335 52 359 0.0 0.0 0.01 0.05 0.05 1 1008.3
20260510011324 52 359 0.0 0.9 0.01 0.05 0.05 1 1008.2
20260510010338 52 359 0.9 1.7 0.01 0.05 0.05 1 1007.9
20260510005333 53 359 0.0 0.9 0.00 0.04 0.04 1 1008.1
20260510004342 53 359 0.0 1.7 0.00 0.04 0.04 1 1007.9
20260510003319 53 359 0.0 2.6 0.00 0.04 0.04 1 1007.8
20260510002327 54 359 0.9 2.6 0.00 0.04 0.04 1 1007.6
20260510001323 54 359 0.0 0.9 0.00 0.04 0.04 1 1007.6
20260510000323 54 359 0.9 2.6 0.00 0.04 0.04 1 1007.4
20260509235321 54 167 0.0 0.0 0.00 0.04 0.04 1 1007.4
20260509234319 55 127 0.0 1.7 0.00 0.04 0.04 1 1007.3
20260509233326 55 148 0.0 2.6 0.00 0.04 0.04 1 1007.3
20260509232323 55 110 0.9 4.3 0.00 0.04 0.04 1 1007.2
20260509231318 55 137 0.9 3.5 0.00 0.04 0.04 1 1007.3
20260509230335 55 359 0.9 4.3 0.00 0.04 0.04 1 1007.4
20260509225329 55 359 0.9 3.5 0.00 0.04 0.04 1 1007.3
20260509224347 55 359 0.0 0.0 0.00 0.04 0.04 1 1007.4
20260509223325 54 359 0.0 1.7 0.00 0.04 0.04 1 1007.4
20260509222321 55 359 0.0 2.6 0.00 0.04 0.04 1 1007.3
20260509221339 55 359 0.0 2.6 0.00 0.04 0.04 1 1007.2
20260509220326 55 359 0.0 2.6 0.00 0.04 0.04 1 1007.4
20260509215323 55 359 0.0 1.7 0.00 0.04 0.04 1 1007.6
20260509214322 55 359 0.0 3.5 0.00 0.04 0.04 1 1007.7
20260509213320 55 359 0.9 3.5 0.00 0.04 0.04 1 1007.8
20260509212318 55 359 0.0 1.7 0.00 0.04 0.04 1 1007.7
20260509211330 55 359 0.9 4.3 0.00 0.04 0.04 1 1007.9
20260509210319 55 359 0.9 1.7 0.00 0.04 0.04 1 1007.8
20260509205314 55 359 0.0 1.7 0.01 0.04 0.04 1 1007.9
20260509204324 55 359 0.0 2.6 0.01 0.04 0.04 1 1008.0
20260509203322 55 359 0.0 1.7 0.01 0.04 0.04 1 1008.1
20260509202318 54 359 0.9 4.3 0.01 0.04 0.04 1 1008.3
20260509201337 55 359 0.9 4.3 0.01 0.05 0.04 1 1008.4
20260509200323 55 359 0.0 3.5 0.01 0.05 0.04 1 1008.4
20260509195322 55 359 0.9 2.6 0.00 0.04 0.03 1 1008.5
20260509194340 55 359 1.7 3.5 0.00 0.04 0.03 1 1008.7
20260509193324 55 359 0.0 3.5 0.00 0.04 0.03 1 1008.8
20260509192322 55 359 0.9 4.3 0.00 0.04 0.03 1 1009.0
20260509191319 55 359 1.7 3.5 0.00 0.06 0.03 1 1009.1
20260509190328 55 359 2.6 5.2 0.00 0.06 0.03 1 1009.3
20260509185345 55 359 1.7 7.0 0.00 0.06 0.03 1 1009.5
20260509184342 55 359 1.7 7.8 0.00 0.06 0.03 1 1009.6
20260509183321 55 359 2.6 5.2 0.00 0.06 0.03 1 1009.5
20260509182337 56 359 0.9 3.5 0.00 0.06 0.03 1 1009.4
20260509181327 56 359 0.0 3.5 0.00 0.07 0.03 1 1009.2
20260509180323 56 359 0.0 0.0 0.00 0.07 0.03 1 1009.1
20260509175320 56 359 0.0 1.7 0.00 0.07 0.03 1 1009.1
20260509174315 56 359 0.0 0.0 0.00 0.07 0.03 1 1009.0
20260509173312 56 359 0.0 1.7 0.00 0.07 0.03 1 1008.8
20260509172329 56 359 0.0 1.7 0.00 0.07 0.03 1 1008.7
20260509171324 56 359 0.0 1.7 0.00 0.07 0.03 1 1008.9
20260509170322 56 359 0.0 2.6 0.00 0.07 0.03 1 1008.9
20260509165320 56 359 0.0 1.7 0.00 0.07 0.03 1 1009.0
20260509164329 56 359 0.0 1.7 0.00 0.07 0.03 1 1009.1
20260509163347 55 359 0.0 0.0 0.00 0.07 0.03 1 1009.2
20260509162324 55 359 0.0 1.7 0.00 0.07 0.03 1 1009.1
20260509161322 55 359 0.9 2.6 0.00 0.07 0.03 1 1009.3
20260509160336 55 359 0.0 2.6 0.00 0.07 0.03 1 1009.7
20260509155344 55 359 0.0 0.0 0.00 0.07 0.03 1 1009.8
20260509154320 55 359 0.0 1.7 0.00 0.07 0.03 1 1010.0
20260509153316 55 359 0.0 3.5 0.01 0.07 0.03 1 1010.0
20260509152315 55 359 0.0 2.6 0.01 0.07 0.03 1 1010.0
20260509151325 54 359 0.0 2.6 0.01 0.07 0.03 1 1010.1
20260509150321 54 359 0.0 1.7 0.01 0.07 0.03 1 1009.9
20260509145319 54 359 0.0 0.9 0.01 0.07 0.03 1 1009.7
20260509144318 54 359 0.9 2.6 0.01 0.07 0.03 1 1009.7
20260509143345 54 359 0.0 1.7 0.00 0.06 0.02 1 1009.8